$Date,$Time,DM0201B,DM0203B,DM0205B,DM0207B,DM0209B
12/10/98,00:00:01,73,15,-9,348,945
12/10/98,00:05:01,63,335,-9,312,945
12/10/98,00:10:01,73,1,-9,279,945
12/10/98,00:15:01,95,345,-9,250,945
12/10/98,00:20:01,96,353,-9,201,945
12/10/98,00:25:01,114,357,-10,173,945
12/10/98,00:30:01,102,347,-10,414,945
12/10/98,00:35:01,105,355,-9,612,945
12/10/98,00:40:01,104,349,-9,237,945
12/10/98,00:45:01,92,337,-9,241,945
12/10/98,00:50:01,125,337,-9,228,945
12/10/98,00:55:01,78,350,-9,333,945
12/10/98,01:00:01,112,356,-9,303,945
12/10/98,01:05:01,104,340,-9,315,945
12/10/98,01:10:01,80,344,-9,324,945
12/10/98,01:15:01,109,346,-9,346,945
12/10/98,01:20:01,87,352,-9,401,945
12/10/98,01:25:01,118,348,-9,399,945
12/10/98,01:30:01,112,340,-9,455,945
12/10/98,01:35:01,105,6,-9,560,945
12/10/98,01:40:01,103,325,-8,375,945
12/10/98,01:45:01,123,349,-8,593,943
12/10/98,01:50:01,113,352,-9,350,943
12/10/98,01:55:01,72,358,-9,256,943
12/10/98,02:00:01,89,333,-8,404,943
12/10/98,02:05:01,67,323,-8,312,943
12/10/98,02:10:01,80,355,-9,293,943
12/10/98,02:15:01,85,337,-9,255,943
12/10/98,02:20:01,66,348,-9,308,943
12/10/98,02:25:01,105,349,-9,337,943
12/10/98,02:30:01,99,347,-9,346,943
12/10/98,02:35:01,94,345,-9,303,943
12/10/98,02:40:01,73,328,-8,756,943
12/10/98,02:45:01,96,348,-8,338,943
12/10/98,02:50:01,97,359,-8,289,943
12/10/98,02:55:01,102,4,-8,684,943
12/10/98,03:00:01,94,11,-9,280,943
12/10/98,03:05:01,84,353,-9,251,943
12/10/98,03:10:01,104,1,-9,247,943
12/10/98,03:15:01,108,7,-9,219,943
12/10/98,03:20:01,75,355,-9,230,943
12/10/98,03:25:01,82,354,-9,223,943
12/10/98,03:30:01,87,346,-9,241,943
12/10/98,03:35:01,107,354,-9,233,943
12/10/98,03:40:01,100,356,-9,267,943
12/10/98,03:45:01,91,358,-9,240,943
12/10/98,03:50:01,82,2,-9,231,943
12/10/98,03:55:01,86,335,-9,228,943
12/10/98,04:00:01,84,349,-9,224,943
12/10/98,04:05:01,83,349,-9,220,943
12/10/98,04:10:01,110,356,-9,227,943
12/10/98,04:15:01,80,359,-9,258,943
12/10/98,04:20:01,90,347,-9,280,943
12/10/98,04:25:01,97,352,-9,276,943
12/10/98,04:30:01,56,352,-9,306,943
12/10/98,04:35:01,89,2,-9,295,943
12/10/98,04:40:01,95,5,-9,276,943
12/10/98,04:45:01,81,5,-9,299,943
12/10/98,04:50:01,80,202,-8,290,943
12/10/98,04:55:01,48,358,-8,268,943
12/10/98,05:00:01,60,16,-8,227,943
12/10/98,05:05:01,80,355,-9,265,943
12/10/98,05:10:01,95,358,-9,258,943
12/10/98,05:15:01,94,1,-9,243,943
12/10/98,05:20:01,66,1,-9,204,943
12/10/98,05:25:01,76,12,-9,183,943
12/10/98,05:30:01,95,359,-9,186,943
12/10/98,05:35:01,63,134,-9,219,943
12/10/98,05:40:01,117,3,-9,210,943
12/10/98,05:45:01,94,12,-9,198,943
12/10/98,05:50:01,103,358,-9,207,943
12/10/98,05:55:01,82,11,-10,181,943
12/10/98,06:00:01,85,353,-9,217,943
12/10/98,06:05:01,62,7,-9,241,943
12/10/98,06:10:01,109,354,-9,238,943
12/10/98,06:15:01,79,353,-9,209,943
12/10/98,06:20:01,82,355,-9,282,943
12/10/98,06:25:01,98,338,-8,613,943
12/10/98,06:30:01,70,349,-8,195,943
12/10/98,06:35:01,85,346,-8,161,943
12/10/98,06:40:01,74,345,-8,230,943
12/10/98,06:45:01,75,340,-8,186,943
12/10/98,06:50:01,85,343,-6,566,943
12/10/98,06:55:01,104,348,-5,588,943
12/10/98,07:00:01,93,337,-4,549,943
12/10/98,07:05:01,43,359,-3,627,943
12/10/98,07:10:01,61,352,-3,597,943
12/10/98,07:15:01,51,1,-1,422,943
12/10/98,07:20:01,27,335,-3,206,943
12/10/98,07:25:01,30,339,-5,140,943
12/10/98,07:30:01,34,340,-5,305,943
12/10/98,07:35:01,37,359,-4,432,943
12/10/98,07:40:01,62,15,-4,157,943
12/10/98,07:45:01,45,4,-5,240,943
12/10/98,07:50:01,53,12,-6,204,943
12/10/98,07:55:01,54,16,-7,133,943
12/10/98,08:00:01,20,6,-7,241,943
12/10/98,08:05:01,47,8,-7,141,943
12/10/98,08:10:01,52,5,-7,243,943
12/10/98,08:15:01,35,15,-6,361,943
12/10/98,08:20:01,44,28,-4,353,943
12/10/98,08:25:01,50,25,-3,349,943
12/10/98,08:30:01,73,2,-4,245,943
12/10/98,08:35:01,53,12,-4,375,943
12/10/98,08:40:01,44,23,-3,346,943
12/10/98,08:45:01,57,18,-3,324,943
12/10/98,08:50:01,72,7,-4,133,943
12/10/98,08:55:01,57,12,-5,213,943
12/10/98,09:00:01,72,12,-6,157,943
12/10/98,09:05:01,85,12,-6,279,943
12/10/98,09:10:01,64,12,-7,312,943
12/10/98,09:15:01,70,359,-6,297,943
12/10/98,09:20:01,77,11,-6,254,943
12/10/98,09:25:01,72,2,-7,291,943
12/10/98,09:30:01,72,24,-6,125,943
12/10/98,09:35:01,72,358,-6,58,943
12/10/98,09:40:01,66,2,-6,49,943
12/10/98,09:45:01,78,359,-6,47,943
12/10/98,09:50:01,63,1,-6,45,943
12/10/98,09:55:01,63,1,-6,123,943
12/10/98,10:00:01,62,2,-7,251,943
12/10/98,10:05:01,62,13,-6,249,943
12/10/98,10:10:01,62,13,-6,247,943
12/10/98,10:15:01,65,2,-7,243,943
12/10/98,10:20:01,59,2,-7,239,943
12/10/98,10:25:01,59,2,-7,235,943
12/10/98,10:30:01,58,1,-7,231,943
12/10/98,10:35:01,70,1,-7,229,943
12/10/98,10:40:01,58,2,-7,225,943
12/10/98,10:45:01,58,2,-8,223,943
12/10/98,10:50:01,68,2,-7,219,943
12/10/98,10:55:01,55,12,-8,215,943
12/10/98,11:00:01,55,1,-7,213,943
12/10/98,11:05:01,44,11,-7,209,943
12/10/98,11:10:01,44,11,-7,207,943
12/10/98,11:15:01,52,11,-7,203,943
12/10/98,11:20:01,52,11,-7,201,943
12/10/98,11:25:01,52,21,-7,199,943
12/10/98,11:30:01,52,21,-7,195,943
12/10/98,11:35:01,52,17,-7,193,943
12/10/98,11:40:01,48,17,-7,191,943
12/10/98,11:45:01,58,17,-7,189,943
12/10/98,11:50:01,57,17,-7,187,943
12/10/98,11:55:01,57,17,-7,185,943
12/10/98,12:00:01,37,17,-7,181,943
12/10/98,12:05:01,49,17,-7,181,943
12/10/98,12:10:01,39,17,-7,179,943
12/10/98,12:15:01,52,17,-8,177,943
12/10/98,12:20:01,52,17,-9,177,943
12/10/98,12:25:01,50,13,-9,175,943
12/10/98,12:30:01,50,13,-9,175,943
12/10/98,12:35:01,38,13,-9,173,943
12/10/98,12:40:01,38,13,-10,173,943
12/10/98,12:45:01,26,13,-9,173,943
12/10/98,12:50:01,25,13,-10,171,943
12/10/98,12:55:01,25,13,-10,171,943
12/10/98,13:00:01,21,13,-10,171,943
12/10/98,13:05:01,18,13,-10,169,943
12/10/98,13:10:01,18,13,-10,169,943
12/10/98,13:15:01,18,13,-10,171,943
12/10/98,13:20:01,28,13,-10,171,943
12/10/98,13:25:01,28,13,-10,171,943
12/10/98,13:30:01,28,13,-10,171,943
12/10/98,13:35:01,28,13,-10,173,943
12/10/98,13:40:01,28,13,-10,173,943
12/10/98,13:45:01,28,13,-10,175,943
12/10/98,13:50:01,28,13,-10,177,943
12/10/98,13:55:01,28,13,-10,177,943
12/10/98,14:00:01,28,13,-10,179,943
12/10/98,14:05:01,27,13,-10,181,943
12/10/98,14:10:01,27,13,-10,183,943
12/10/98,14:15:01,27,13,-10,183,943
12/10/98,14:20:01,17,23,-10,185,943
12/10/98,14:25:01,17,23,-10,189,943
12/10/98,14:30:01,27,23,-11,191,943
12/10/98,14:35:01,27,23,-11,193,943
12/10/98,14:40:01,27,23,-11,197,943
12/10/98,14:45:01,27,23,-11,199,943
12/10/98,14:50:01,37,12,-11,203,943
12/10/98,14:55:01,27,12,-11,207,943
12/10/98,15:00:01,27,12,-11,209,943
12/10/98,15:05:01,17,12,-11,213,943
12/10/98,15:10:01,17,12,-11,215,943
12/10/98,15:15:01,28,2,-11,219,943
12/10/98,15:20:01,28,3,-11,223,943
12/10/98,15:25:01,28,356,-11,227,943
12/10/98,15:30:01,28,359,-11,231,943
12/10/98,15:35:01,28,1,-11,235,943
12/10/98,15:40:01,28,1,-11,237,943
12/10/98,15:45:01,28,2,-11,241,943
12/10/98,15:50:01,28,2,-11,245,943
12/10/98,15:55:01,24,1,-11,249,943
12/10/98,16:00:01,15,16,-11,251,943
12/10/98,16:05:01,28,23,-11,255,943
12/10/98,16:10:01,17,359,-11,259,943
12/10/98,16:15:01,15,195,-11,263,943
12/10/98,16:20:01,66,185,-11,268,943
12/10/98,16:25:01,54,182,-11,272,943
12/10/98,16:30:01,57,174,-10,276,943
12/10/98,16:35:01,45,199,-10,278,943
12/10/98,16:40:01,56,184,-10,282,943
12/10/98,16:45:01,65,184,-10,286,943
12/10/98,16:50:01,73,184,-10,288,943
12/10/98,16:55:01,37,196,-10,292,943
12/10/98,17:00:01,60,208,-10,294,943
12/10/98,17:05:01,55,210,-10,298,943
12/10/98,17:10:01,27,213,-10,300,943
12/10/98,17:15:01,32,218,-10,302,943
12/10/98,17:20:01,12,219,-10,305,943
12/10/98,17:25:01,3,189,-10,310,943
12/10/98,17:30:01,3,196,-10,312,943
12/10/98,17:35:01,5,234,-10,312,943
12/10/98,17:40:01,19,6,-10,315,943
12/10/98,17:45:01,28,17,-10,321,943
12/10/98,17:50:01,38,11,-11,322,943
12/10/98,17:55:01,48,11,-11,324,943
12/10/98,18:00:01,48,21,-10,326,943
12/10/98,18:05:01,75,21,-10,328,943
12/10/98,18:10:01,54,18,-10,332,943
12/10/98,18:15:01,54,21,-10,334,943
12/10/98,18:20:01,60,29,-11,336,943
12/10/98,18:25:01,34,356,-11,340,943
12/10/98,18:30:01,30,12,-11,342,943
12/10/98,18:35:01,65,14,-11,344,943
12/10/98,18:40:01,40,2,-11,349,943
12/10/98,18:45:01,85,74,-10,353,943
12/10/98,18:50:01,69,67,-10,364,943
12/10/98,18:55:01,26,100,-10,372,943
12/10/98,19:00:01,63,218,-10,362,943
12/10/98,19:05:01,17,342,-10,381,943
12/10/98,19:10:01,14,310,-10,388,943
12/10/98,19:15:01,30,239,-10,362,943
12/10/98,19:20:01,22,266,-10,363,943
12/10/98,19:25:01,34,283,-10,366,943
12/10/98,19:30:01,45,308,-10,369,943
12/10/98,19:35:01,21,313,-10,373,943
12/10/98,19:40:01,72,325,-10,387,943
12/10/98,19:45:01,43,336,-10,391,943
12/10/98,19:50:01,44,326,-10,393,943
12/10/98,19:55:01,46,311,-10,393,943
12/10/98,20:00:01,13,326,-10,390,943
12/10/98,20:05:01,59,204,-10,382,943
12/10/98,20:10:01,23,202,-10,384,943
12/10/98,20:15:01,56,205,-10,384,943
12/10/98,20:20:01,37,198,-10,387,943
12/10/98,20:25:01,31,219,-10,387,943
12/10/98,20:30:01,9,273,-10,394,943
12/10/98,20:35:01,46,334,-10,393,943
12/10/98,20:40:01,63,351,-10,397,943
12/10/98,20:45:01,37,325,-10,406,943
12/10/98,20:50:01,64,334,-10,414,943
12/10/98,20:55:01,53,335,-10,418,943
12/10/98,21:00:01,63,317,-11,418,943
12/10/98,21:05:01,46,308,-11,422,943
12/10/98,21:10:01,42,312,-11,423,943
12/10/98,21:15:01,85,293,-10,424,943
12/10/98,21:20:01,110,207,-10,420,943
12/10/98,21:25:01,141,191,-11,423,943
12/10/98,21:30:01,118,189,-10,426,943
12/10/98,21:35:01,94,218,-10,430,943
12/10/98,21:40:01,124,190,-10,437,943
12/10/98,21:45:01,85,201,-10,443,943
12/10/98,21:50:01,82,344,-10,450,943
12/10/98,21:55:01,64,359,-10,487,943
12/10/98,22:00:01,77,1,-10,494,943
12/10/98,22:05:01,57,342,-10,486,943
12/10/98,22:10:01,44,316,-10,487,943
12/10/98,22:15:01,69,184,-10,473,943
12/10/98,22:20:01,197,196,-11,482,943
12/10/98,22:25:01,178,193,-11,480,943
12/10/98,22:30:01,157,181,-11,483,943
12/10/98,22:35:01,140,192,-11,487,943
12/10/98,22:40:01,130,176,-10,494,943
12/10/98,22:45:01,143,179,-10,498,943
12/10/98,22:50:01,136,182,-11,504,943
12/10/98,22:55:01,172,190,-11,507,943
12/10/98,23:00:01,159,181,-11,513,943
12/10/98,23:05:01,151,189,-11,517,943
12/10/98,23:10:01,114,189,-11,519,943
12/10/98,23:15:01,184,192,-11,524,943
12/10/98,23:20:01,247,180,-11,528,943
12/10/98,23:25:01,222,179,-11,533,943
12/10/98,23:30:01,180,181,-11,535,943
12/10/98,23:35:01,198,185,-11,540,945
12/10/98,23:40:01,170,184,-11,542,945
12/10/98,23:45:01,190,182,-11,546,945
12/10/98,23:50:01,196,186,-11,552,945
12/10/98,23:55:01,146,194,-11,555,945
12/11/98,00:00:01,127,176,-11,558,945
